www.pogodaiklimat.ru

Погода и климат >> Архив погоды >> Индия >> Ranchi


ПОГОДА в Ranchi

  • Прогноз погоды в Ranchi
  • Монитор погоды в Ranchi
  • Климат города

АРХИВ ПОГОДЫ в Ranchi

Время (UTC), дата Ветер
(напр.,м/с)
 
Видим.   Явления Облачность Т
(С)
Тd
(С)
f
(%)
Тe
(С)
Тes
(С)
Комфортность P
(гПа)
Po
(гПа)
Тmin
(С)
Tmax
(С)
R
(мм)
R24
(мм)
S
(см)
00 11.11 штиль 0 1000 м дымка ясно +13.0 +11.6 91 +12 +12 1016.1 941.0
03 11.11 штиль 0 1000 м дымка ясно +19.0 +13.3 70 +20 +26 1015.7 942.7 +12.6
06 11.11 штиль 0 4000 м мгла ясно +26.0 +11.5 40 +27 +43 жарко 1013.6 941.8
09 11.11 4000 м мгла ясно +27.0 +12.0 39 1010.0 939.5
12 11.11 4000 м мгла ясно +22.6 +10.4 46 1012.5 940.1 +27.2
15 11.11 штиль 0 2000 м мгла ясно +19.4 +9.7 53 +20 +20 1014.9 941.6
18 11.11 штиль 0 2000 м мгла ясно +17.4 +10.6 64 +17 +17 1015.5 941.5
21 11.11 штиль 0 2000 м мгла ясно +16.4 +11.1 71 +16 +16 1014.5 940.6
00 12.11 штиль 0 2000 м мгла ясно +14.0 +12.6 91 +14 +14 1015.4 940.7
03 12.11 штиль 0 1000 м дымка ясно +19.4 +13.7 70 +21 +26 комфорт 1015.1 941.8 +13.2
06 12.11 штиль 0 2000 м мгла ясно +25.0 +10.6 40 +26 +42 жарко 1013.2 941.2
09 12.11 СВ 2 2000 м мгла 3/0
[Ci fib]
+27.2 +9.6 33 +28 +34 жарко 1009.1 938.1
12 12.11 штиль 0 2000 м мгла 4/0
[Ci fib]
+23.0 +11.8 49 +25 +25 комфорт 1010.6 938.4 +28.0
15 12.11 штиль 0 2000 м мгла 4/0
[Ci fib]
+19.2 +12.4 65 +20 +20 1012.6 939.5
18 12.11 штиль 0 2000 м мгла 4/0
[Ci fib]
+17.4 +12.6 73 +17 +17 1013.0 939.3
21 12.11 штиль 0 2000 м мгла 4/0
[Ci fib]
+16.2 +12.8 80 +16 +16 1012.3 938.5
00 13.11 штиль 0 2000 м мгла 4/0
[Ci fib]
+14.4 +10.8 79 +14 +14 1013.0 938.6
03 13.11 штиль 0 1000 м дымка ясно +17.4 +13.4 77 +17 +23 1013.8 940.1 +13.3
06 13.11 штиль 0 2000 м мгла ясно +25.8 +8.9 34 +26 +42 жарко 1010.8 939.3
09 13.11 С 2 2000 м мгла ясно +27.6 +8.2 29 +27 +34 жарко 1017.5 936.7
12 13.11 штиль 0 2000 м мгла ясно +23.8 +10.3 42 +25 +25 комфорт 1008.8 937.0 +28.7
15 13.11 штиль 0 2000 м мгла ясно +18.8 +12.3 66 +20 +20 1012.3 938.8
18 13.11 штиль 0 2000 м мгла ясно +17.4 +11.8 70 +17 +17 1012.2 938.7
21 13.11 штиль 0 2000 м мгла ясно +16.4 +11.9 75 +16 +16 1011.8 938.0
00 14.11 штиль 0 2000 м мгла ясно +14.4 +11.9 85 +14 +14 1012.1 937.8
03 14.11 штиль 0 2000 м мгла ясно +20.0 +10.1 53 +21 +27 комфорт 1013.0 939.9 +13.2
06 14.11 штиль 0 4000 м мгла ясно +28.4 +7.4 27 +32 +47 душно 1010.0 939.1
09 14.11 СВ 2 4000 м мгла ясно +27.8 +7.5 28 +27 +33 жарко 1008.3 937.3
12 14.11 штиль 0 4000 м мгла ясно +24.4 +13.9 52 +27 +27 жарко 1009.9 938.2 +30.2
15 14.11 штиль 0 2000 м мгла ясно +21.6 +12.9 58 +24 +24 комфорт 1013.0 940.4
18 14.11 штиль 0 2000 м мгла ясно +17.4 +13.7 79 +17 +17 1014.0 940.3
21 14.11 штиль 0 2000 м мгла ясно +17.0 +13.6 80 +17 +17 1013.5 939.6
00 15.11 штиль 0 2000 м мгла ясно +16.6 +13.5 82 +16 +16 1013.6 939.8
03 15.11 ЮЗ 2 4000 м мгла ясно +22.6 +11.7 50 +25 +29 комфорт 1014.2 941.7 +16.3
06 15.11 ЮЗ 2 4000 м 3/3 600 м
[Sc]
+29.4 +10.0 30 +29 +38 жарко 1011.7 941.0
09 15.11 С 2 4000 м 4/4 600 м
[Sc]
+28.6 +7.2 26 +28 +31 жарко 1010.0 937.2
12 15.11 штиль 0 4000 м ясно +25.4 +11.1 41 +27 +27 жарко 1011.2 939.6 +30.4
15 15.11 штиль 0 2000 м мгла ясно +20.4 +10.1 52 +22 +22 комфорт 1014.3 941.3
18 15.11 штиль 0 2000 м мгла ясно +18.2 +12.7 70 +18 +18 1014.1 940.7
21 15.11 штиль 0 2000 м мгла ясно +17.0 +13.6 80 +17 +17 1013.5 939.6
00 16.11 штиль 0 2000 м мгла ясно +16.0 +12.5 80 +16 +16 1014.1 939.9
03 16.11 штиль 0 2000 м мгла ясно +21.4 +13.0 59 +24 +29 комфорт 1014.9 942.1 +14.5
06 16.11 ЮЗ 3 4000 м ясно +28.8 +8.6 28 +28 +39 жарко 1011.4 940.5
09 16.11 ЮЗ 2 4000 м 5/3 600 м
[Sc Ac trans]
+29.8 +9.2 28 +29 +33 жарко 1008.1 937.8
12 16.11 штиль 0 4000 м мгла 3/0
[Ci fib]
+25.6 +11.4 41 +27 +27 жарко 1009.8 938.3 +30.4
15 16.11 штиль 0 4000 м мгла ясно +21.4 +12.6 57 +24 +24 комфорт 1012.1 939.5
18 16.11 штиль 0 4000 м мгла ясно +18.8 +12.3 66 +20 +20 1013.2 939.8
21 16.11 штиль 0 4000 м мгла ясно +18.0 +12.9 72 +18 +18 1012.3 938.9
00 17.11 штиль 0 2000 м мгла ясно +16.6 +13.9 84 +16 +16 1013.5 939.6
03 17.11 штиль 0 1000 м дымка ясно +20.2 +13.1 64 +22 +27 комфорт 1014.5 941.6 +15.5
06 17.11 СЗ 2 2000 м мгла ясно +26.4 +7.3 30 +26 +38 жарко 1011.8 940.4
09 17.11 З 2 4000 м мгла ясно +27.8 +5.8 25 +27 +33 жарко 1008.4 937.4
12 17.11 штиль 0 4000 м мгла ясно +22.6 +7.6 38 +24 +24 комфорт 1010.1 937.9 +28.4
15 17.11 штиль 0 4000 м мгла ясно +18.6 +10.9 61 +19 +19 1013.2 939.8
18 17.11 штиль 0 2000 м мгла ясно +16.4 +11.1 71 +16 +16 1013.9 940.0
21 17.11 штиль 0 2000 м мгла ясно +15.0 +11.4 79 +15 +15 1013.6 939.2

 

Местоположение метеостанции Ranchi (Jharkhand, Индия): широта 23.32 долгота 85.32 высота над уровнем моря 652 м.

В архиве по умолчанию представлена погода в Ranchi за последнюю неделю. Архивные данные за месяц целиком и за предыдущие месяцы, начиная с января 2011 года, Вы можете получить, выбрав интересующий диапазон дат из раскрывающегося списка и нажав кнопку "Ввод!".


*Определитесь, кто Вы:
робот инопланетянин человек

Внимание! Время в таблицах - всемирное. Для получения местного времени необходимо прибавить поправку, которая в Ranchi равна 5.5 ч.

Смотрите также архив погоды в соседних городах и на ближайших метеорологических станциях:

Погода в Chaibasa (Jharkhand, Индия) (100 км)
Погода в Jamshedpur (Jharkhand, Индия) (104 км)
Погода в Purulia (West Bengal, Индия) (112 км)
Погода в Daltonganj (Jharkhand, Индия) (151 км)
Погода в Gaya (Bihar, Индия) (163 км)
Погода в Asansol (West Bengal, Индия) (174 км)
Погода в Bankura (West Bengal, Индия) (177 км)
Погода в Sundargarh (Orissa, Индия) (188 км)
Погода в Keongjhargarh (Orissa, Индия) (190 км)
Погода в Jharsuguda (Orissa, Индия) (201 км)

Пояснения к столбцам:

Ветер - указаны скорость ветра в м/с - средняя за 10 мин, порывы в срок и между сроками (в фигурных скобках) и направление, откуда дует ветер: С - северный, СВ - северо-восточный, В - восточный, ЮВ - юго-восточный, Ю - южный, ЮЗ - юго-западный, З - западный, СЗ - северо-западный.
Видимость - горизонтальная дальность видимости в метрах или километрах. При видимости от 1 до 10 км при отсутствии осадков обычно наблюдается дымка, при ухудшении видимости до 1 км и менее - туман. В сухую погоду видимость может ухудшаться дымом, пылью или мглою.
Явления - указаны атмосферные явления, наблюдавшиеся в срок или в последний час перед сроком; фигурными скобками обозначены явления, наблюдавшиеся между сроками (за 1-3 часа до срока); квадратными скобками обозначены град или гололедные отложения с указанием их диаметра в мм.
Облачность - указаны через наклонную черту общая и нижняя облачность в баллах и высота нижней границы облаков в метрах; квадратными скобками обозначены формы облаков: Ci - перистые, Cs - перисто-слоистые, Cc - перисто-кучевые, Ac - высококучевые, As - высокослоистые, Sc - слоисто-кучевые, Ns - слоисто-дождевые, Cu - кучевые, Cb - кучево-дождевые. Подробнее классификацию облаков см. в Атласе облаков (PDF).
T - Температура воздуха - температура, измеренная на высоте 2 м над землей.
Td - Температура точки росы - температура, при понижении до которой содержащийся в воздухе водяной пар достигнет насыщения.
f - Относительная влажность воздуха - влажноcть воздуха, измеренная на высоте 2 м над землей.
Te - Эффективная температура - температура, которую ощущает одетый по сезону человек в тени. Характеристика душности погоды. При расчете учитывается влияние влажности воздуха и скорости ветра на теплоощущения человека.
Tes - Эффективная температура на солнце - температура, которую ощущает человек, с поправкой на солнечный нагрев. Характеристика знойности погоды. Зависит от высоты солнца над горизонтом, облачности и скорости ветра. Ночью, в пасмурную погоду, а также при ветре 12 м/с и более поправка равна нулю.
P - Атмосферное давление - приведенное к уровню моря атмосферное давление.
Po - Атмосферное давление - измеренное на уровне метеостанции атмосферное давление.
Tmin - Минимальная температура - минимум температуры воздуха на высоте 2 м над землей.
Tmax - Максимальная температура - максимум температуры воздуха на высоте 2 м над землей.
R - Количество осадков - Количество выпавших осадков за период времени, мм. При наведении курсора мыши на число - период времени, за который выпало указанное количество осадков.
R24 - Количество осадков - Количество выпавших осадков за 24 часа, мм.
S - Снежный покров - Высота снежного покрова, см. При наведении курсора мыши на число - состояние снежного покрова и степень покрытия местности в баллах.